Regional Weather Roundup
Issued by NWS

Home | Current Version | Previous Version | Text Only | Print | Product List | Glossary Off
Versions: 1 2 3 4 5 6 7 8 9 10 11 12 13 14 15 16 17 18 19 20 21 22 23 24 25 26 27 28 29 30 31 32 33 34 35 36 37 38 39 40 41 42 43 44 45 46 47 48 49 50

287
ASUS43 KMPX 291210
RWRMN
WEATHER ROUNDUP FOR MINNESOTA
NATIONAL WEATHER SERVICE TWIN CITIES/CHANHASSEN MN
700 AM CDT SAT APR 29 2017


NOTE: "FAIR" INDICATES FEW OR NO CLOUDS BELOW 12,000 FEET WITH NO
SIGNIFICANT WEATHER AND/OR OBSTRUCTIONS TO VISIBILITY. N/A MEANS
CURRENT SKY AND/OR WEATHER CONDITIONS ARE NOT AVAILABLE.

MNZ060>063-068>070-291300-
   Twin Cities Metro

CITY           SKY/WX    TMP DP  RH WIND       PRES   REMARKS
TWIN CITIES    CLOUDY    39  26  59 E12       30.27R
6HR MIN TEMP:  38; 6HR MAX TEMP:  44;

ST PAUL        CLOUDY    38  28  67 E7        30.30R
CRYSTAL        CLOUDY    38  25  59 E6        30.28R
BLAINE         MOCLDY    37  28  70 E8        30.30
LAKEVILLE      CLOUDY    34  30  86 E6        30.27R WCI  29
EDEN PRAIRIE   CLOUDY    40  26  57 E10       30.25R
6HR MIN TEMP:  39; 6HR MAX TEMP:  45;

SOUTH ST PAUL  CLOUDY    38  27  65 E6        30.28R
LAKE ELMO      FAIR      36  30  80 E5        30.30R
$$
MNZ001>005-007-008-013>017-022>024-027-028-291300-
   Northwest Minnesota

CITY           SKY/WX    TMP DP  RH WIND       PRES   REMARKS
BEMIDJI        CLEAR     21  19  93 CALM      30.24S
HALLOCK        CLEAR     27  23  86 CALM      30.28R
ROSEAU         CLEAR     27  21  80 CALM      30.26S
WARROAD        CLEAR     27  21  80 CALM      30.27R
THIEF RVR FALL CLEAR     29  21  72 NW3       30.27R
CROOKSTON      CLEAR     30  27  86 CALM      30.26F
FOSSTON        CLEAR     21  18  86 CALM      30.25S
DETROIT LAKES  CLEAR     30  28  93 CALM      30.26R
MOORHEAD       CLEAR     28  25  86 CALM      30.27R
PARK RAPIDS    CLOUDY    28  20  71 N3        30.25R
MAHNOMEN       FAIR      27  24  89 CALM      30.25R
$$
MNZ006-009>011-018-025>026-291300-
   North Central Minnesota

CITY           SKY/WX    TMP DP  RH WIND       PRES   REMARKS
BAUDETTE       CLEAR     27  22  81 CALM      30.25R
FLAG ISLAND    CLEAR     34  25  69 CALM      30.26R
INTL FALLS     CLEAR     26  23  88 NE5       30.24S WCI  20
6HR MIN TEMP:  20; 6HR MAX TEMP:  26;

WASKISH        PTCLDY    27  25  93 CALM      30.25R
BIG FORK       CLEAR     25  21  86 CALM      30.25R
LONGVILLE      CLEAR     27  27 100 CALM      30.26R
GRAND RAPIDS   CLOUDY    26  25  96 CALM      30.28R
CRANE LAKE     CLEAR     18  18 100 CALM      30.26S
ORR            CLEAR     25  21  86 CALM      30.22R
COOK           CLEAR     25  21  86 CALM      30.25R
WALKER         FAIR      26  24  91 CALM      30.25R
$$
MNZ012-019>021-037-291300-
   Northeast Minnesota

CITY           SKY/WX    TMP DP  RH WIND       PRES   REMARKS
DULUTH         CLEAR     33  26  75 N5        30.25R WCI  29
6HR MIN TEMP:  25; 6HR MAX TEMP:  33;

ELY            SUNNY     25  21  86 CALM      30.23R
HIBBING        CLEAR     23  22  96 CALM      30.26R
EVELETH        CLEAR     24  22  91 CALM      30.26R
DULUTH HARBOR  CLEAR     32  30  93 SW3       30.28R
TWO HARBORS    CLEAR     32  27  80 CALM      30.24R
SILVER BAY     SUNNY     30  27  86 CALM      30.24R
GRAND MARAIS     N/A     35  24  64 NW7       30.27R WCI  29
G MARAIS ARPRT SUNNY     27  19  74 CALM      30.22R
$$
MNZ029>031-032-039>041-046>048-054>057-064-291300-
   West Central Minnesota

CITY           SKY/WX    TMP DP  RH WIND       PRES   REMARKS
FERGUS FALLS   CLEAR     34  23  64 E5        30.25S WCI  30
WHEATON        PTCLDY    30  25  80 CALM      30.27S
MORRIS         CLOUDY    28  25  86 NE3       30.24R
ALEXANDRIA     PTCLDY    32  23  69 E5        30.24R WCI  27
ELBOW LAKE     FAIR      33  28  83 CALM      30.26R
WADENA         CLOUDY    25  21  86 CALM      30.26R
GLENWOOD       CLOUDY    30  25  80 E7        30.24F WCI  23
APPLETON       CLOUDY    30  25  80 NE3       30.26R
BENSON         CLOUDY    30  21  69 CALM      30.27R
ORTONVILLE     PTCLDY    30  25  80 NE3       30.25R
MADISON        MOCLDY    34  27  75 CALM      30.25R
WILLMAR        FAIR      36  28  75 E6        30.27R
$$
MNZ033>034-036-042>043-049>051-058-059-291300-
   Central Minnesota

CITY           SKY/WX    TMP DP  RH WIND       PRES   REMARKS
ST CLOUD       CLOUDY    30  26  85 N3        30.26R
6HR MIN TEMP:  28; 6HR MAX TEMP:  40;

SAUK CENTRE    FAIR      29  24  84 CALM      30.26S
PAYNESVILLE    CLOUDY    31  31 100 CALM      30.25F
AITKIN         CLOUDY    28  25  86 CALM      30.25R
PINE RIVER     CLEAR     25  23  93 CALM      30.28R
BRAINERD       CLOUDY    28  27  96 CALM      30.27R
STAPLES        CLOUDY    25  21  86 CALM      30.26R
LONG PRAIRIE   FAIR      28  25  86 CALM      30.26R
LITTLE FALLS   PTCLDY    28  23  80 CALM      30.27R
LITCHFIELD     CLOUDY    37  28  70 E3        30.25R
BUFFALO        CLOUDY    35  28  74 NE6       30.26F WCI  30
MAPLE LAKE     MOCLDY    35  30  80 NE5       30.26F WCI  31
HUTCHINSON     CLEAR     36  29  77 NE6       30.26S
$$
MNZ037-044-045-052-053-291300-
   East Central Minnesota

CITY           SKY/WX    TMP DP  RH WIND       PRES   REMARKS
PRINCETON      CLOUDY    30  27  86 CALM      30.27R
MORA           CLOUDY    32  28  86 CALM      30.29R
CAMBRIDGE      CLOUDY    34  25  69 CALM      30.27R
RUSH CITY      CLOUDY    31  27  85 CALM      30.28R
MOOSE LAKE     PTCLDY    27  25  93 CALM      30.26R
HINCKLEY       FAIR      30  28  93 CALM      30.28R
CLOQUET        CLEAR     28  25  86 N6        30.26R WCI  22
MCGREGOR       CLOUDY    30  28  93 CALM      30.27R
$$
MNZ071>073-080-081-089-090-097-098-291300-
   Southwest Minnesota

CITY           SKY/WX    TMP DP  RH WIND       PRES   REMARKS
MONTEVIDEO     CLOUDY    30  25  80 CALM      30.26R
GRANITE FALLS  CLOUDY    35  28  78 NE5       30.26R WCI  31
CANBY          CLOUDY    31  27  83 CALM      30.25S
MARSHALL       CLOUDY    29  25  85 NW3       30.24R
REDWOOD FALLS  CLOUDY    37  26  64 E6        30.25S
OLIVIA         CLOUDY    34  28  80 E3        30.25R
PIPESTONE      CLOUDY    36  21  55 E7        30.19R
WINDOM         MOCLDY    37  28  70 NE8       30.23R
WORTHINGTON    CLOUDY    34  27  75 NE9       30.22R WCI  27
JACKSON        CLOUDY    36  30  80 NE12      30.22R
TRACY          MOCLDY    34  28  80 NE6       30.23R WCI  29
SLAYTON        CLOUDY    34  26  72 NE8       30.22R WCI  28
$$
MNZ065>067-074>077-082>085-091>093-291300-
   South Central Minnesota

CITY           SKY/WX    TMP DP  RH WIND       PRES   REMARKS
MANKATO        MOCLDY    38  29  70 E16       30.24R
NEW ULM        CLOUDY    37  27  65 E10       30.26R
ST JAMES       CLOUDY    37  30  75 NE8       30.24R
FAIRMONT       MOCLDY    37  30  75 NE13      30.21S
GLENCOE        CLOUDY    38  31  76 E7        30.26R
FARIBAULT      PTCLDY    37  28  70 NE9       30.24F
OWATONNA       PTCLDY    36  28  75 NE14      30.21F
WASECA         CLOUDY    36  30  80 NE15G21   30.22F
ALBERT LEA     PTCLDY    36  28  75 NE14G20   30.17F
$$
MNZ078>079-086>088-094>096-291300-
   Southeast Minnesota

CITY           SKY/WX    TMP DP  RH WIND       PRES   REMARKS
ROCHESTER      CLOUDY    35  29  78 NE16      30.19F WCI  25
6HR MIN TEMP:  34; 6HR MAX TEMP:  38;

RED WING       CLEAR     37  25  60 E8        30.28R
STANTON        PTCLDY    37  29  71 E6        30.25F
DODGE CENTER   CLOUDY    34  28  80 NE14      30.19F WCI  24
WINONA         CLEAR     37  30  75 NE3       30.26S
AUSTIN         PTCLDY    36  30  80 NE13G22   30.17F
PRESTON        PTCLDY    35  29  81 NE13G21   30.20R WCI  26
$$
ABBREVIATIONS USED IN REMARKS
   TC - TEMPERATURES IN CELSIUS
  WCI - WIND CHILL INDEX
   HX - HEAT INDEX
  VSB - VISIBILITY
$$




USA.gov is the U.S. government's official web portal to all federal, state and local government web resources and services.